Change the Weather History Date:

Tuesday, November 26, 2013

  Actual Average Record
Temperature  
Mean Temperature 62 °F -  
Max Temperature 67 °F 62 °F 69 °F (2007)
Min Temperature 56 °F 50 °F 42 °F (2004)
Degree Days  
Heating Degree Days 4    
Growing Degree Days 12 (Base 50)    
Moisture  
Dew Point 51 °F    
Average Humidity 70    
Maximum Humidity 94    
Minimum Humidity 37    
Precipitation  
Precipitation 0.00 in 0.12 in - ()
Sea Level Pressure  
Sea Level Pressure 29.78 in    
Wind  
Wind Speed 6 mph ()    
Max Wind Speed 17 mph    
Max Gust Speed -    
Visibility 6.1 miles    
Events Rain    
Averages and records for this station are not official NWS values.
T = Trace of Precipitation, MM = Missing Value Source: Averaged Metar Reports

Daily Weather History Graph

Daily Weather History Graph

Search for Another Location

Airport or City:

Trip Planner

Search our weather history database for the weather conditions in past years. The results will help you decide how hot, cold, wet, or windy it might be!

Date:

Astronomy

Nov. 26, 2013 Rise Set
Actual Time 7:09 AM EET 5:11 PM EET
Civil Twilight 6:41 AM EET 5:39 PM EET
Nautical Twilight 6:10 AM EET 6:10 PM EET
Astronomical Twilight 5:40 AM EET 6:41 PM EET
Moon 12:09 AM EET (11/26) 12:55 PM EET (11/26)
Length of Visible Light 10h 57m
Length of Day
10h 01m
Last Quarter, 44% of the Moon is Illuminated
Nov 26
Last Quarter
Dec 3
New
Dec 9
First Quarter
Dec 17
Full
Dec 25
Last Quarter

Hourly Weather History & Observations

Time (EET) Temp. Dew Point Humidity Pressure Visibility Wind Dir Wind Speed Gust Speed Precip Events Conditions
12:20 AM 59.0 °F 51.8 °F 77% 29.77 in 6.2 mi WSW 4.6 mph - N/A   Scattered Clouds
12:50 AM 59.0 °F 51.8 °F 77% 29.77 in 6.2 mi WSW 5.8 mph - N/A   Scattered Clouds
1:20 AM 60.8 °F 51.8 °F 72% 29.77 in 6.2 mi WSW 6.9 mph - N/A   Partly Cloudy
1:50 AM 60.8 °F 51.8 °F 72% 29.77 in 6.2 mi West 9.2 mph - N/A   Partly Cloudy
2:00 AM 60 °F 52 °F 67% 29.78 in 6 mi West 9.2 mph - -   Scattered Clouds
2:20 AM 60.8 °F 51.8 °F 72% 29.77 in 6.2 mi West 6.9 mph - N/A   Scattered Clouds
2:50 AM 60.8 °F 51.8 °F 72% 29.74 in 6.2 mi West 9.2 mph - N/A   Scattered Clouds
3:20 AM 59.0 °F 53.6 °F 82% 29.74 in 6.2 mi SW 5.8 mph - N/A   Mostly Cloudy
3:50 AM 60.8 °F 51.8 °F 72% 29.74 in 6.2 mi SW 4.6 mph - N/A   Mostly Cloudy
4:20 AM 60.8 °F 51.8 °F 72% 29.74 in 6.2 mi WSW 4.6 mph - N/A   Mostly Cloudy
4:50 AM 59.0 °F 51.8 °F 77% 29.74 in 6.2 mi Calm Calm - N/A   Mostly Cloudy
5:20 AM 59.0 °F 51.8 °F 77% 29.74 in 6.2 mi Calm Calm - N/A   Mostly Cloudy
5:50 AM 57.2 °F 51.8 °F 82% 29.77 in 5.6 mi West 6.9 mph - N/A Rain Light Rain
6:20 AM 57.2 °F 53.6 °F 88% 29.77 in 5.0 mi WNW 12.7 mph - N/A Rain Light Rain
6:50 AM 57.2 °F 55.4 °F 94% 29.80 in 3.7 mi West 11.5 mph - N/A Rain Rain
7:20 AM 57.2 °F 55.4 °F 94% 29.80 in 5.6 mi WNW 6.9 mph - N/A Rain Light Rain
7:50 AM 57.2 °F 53.6 °F 88% 29.77 in 5.6 mi West 6.9 mph - N/A Rain Light Rain
8:00 AM 56 °F 54 °F 90% 29.79 in 6 mi West 6.9 mph - - Rain Light Rain
8:20 AM 57.2 °F 53.6 °F 88% 29.77 in 6.2 mi WSW 5.8 mph - N/A   Mostly Cloudy
8:50 AM 57.2 °F 53.6 °F 88% 29.77 in 6.2 mi SW 4.6 mph - N/A   Mostly Cloudy
9:20 AM 57.2 °F 53.6 °F 88% 29.77 in 6.2 mi SW 4.6 mph - N/A   Mostly Cloudy
9:50 AM 60.8 °F 55.4 °F 82% 29.80 in 6.2 mi SSW 5.8 mph - N/A   Mostly Cloudy
10:20 AM 62.6 °F 53.6 °F 72% 29.80 in 6.2 mi West 6.9 mph - N/A   Mostly Cloudy
10:50 AM 62.6 °F 53.6 °F 72% 29.80 in 6.2 mi West 5.8 mph - N/A   Mostly Cloudy
11:20 AM 62.6 °F 53.6 °F 72% 29.80 in 6.2 mi West 5.8 mph - N/A   Mostly Cloudy
11:50 AM 64.4 °F 51.8 °F 64% 29.77 in 6.2 mi Variable 3.5 mph - N/A   Mostly Cloudy
12:20 PM 64.4 °F 51.8 °F 64% 29.77 in 6.2 mi Variable 3.5 mph - N/A   Mostly Cloudy
12:50 PM 66.2 °F 51.8 °F 60% 29.77 in 6.2 mi West 11.5 mph - N/A   Scattered Clouds
1:20 PM 66.2 °F 51.8 °F 60% 29.77 in 6.2 mi West 11.5 mph - N/A   Scattered Clouds
1:50 PM 68.0 °F 48.2 °F 49% 29.77 in 6.2 mi West 17.3 mph - N/A   Scattered Clouds
2:00 PM 68 °F 48 °F 37% 29.76 in 6 mi West 17.3 mph - -   Partly Cloudy
2:20 PM 68.0 °F 48.2 °F 49% 29.77 in 6.2 mi West 13.8 mph - N/A   Scattered Clouds
2:50 PM 68.0 °F 50.0 °F 52% 29.74 in 6.2 mi NW 13.8 mph - N/A   Scattered Clouds
3:20 PM 68.0 °F 50.0 °F 52% 29.74 in 6.2 mi WNW 13.8 mph - N/A   Scattered Clouds
3:50 PM 66.2 °F 51.8 °F 60% 29.77 in 6.2 mi WNW 15.0 mph - N/A   Scattered Clouds
4:20 PM 66.2 °F 51.8 °F 60% 29.77 in 6.2 mi West 13.8 mph - N/A   Scattered Clouds
4:50 PM 64.4 °F 48.2 °F 56% 29.77 in 6.2 mi SW 6.9 mph - N/A   Scattered Clouds
5:20 PM 64.4 °F 48.2 °F 56% 29.77 in 6.2 mi SW 5.8 mph - N/A   Scattered Clouds
5:50 PM 62.6 °F 50.0 °F 63% 29.80 in 6.2 mi WSW 6.9 mph - N/A   Scattered Clouds
6:20 PM 62.6 °F 50.0 °F 63% 29.80 in 6.2 mi SW 4.6 mph - N/A   Scattered Clouds
6:50 PM 60.8 °F 50.0 °F 68% 29.80 in 6.2 mi SW 4.6 mph - N/A   Scattered Clouds
7:20 PM 60.8 °F 50.0 °F 68% 29.80 in 6.2 mi SW 4.6 mph - N/A   Scattered Clouds
7:50 PM 59.0 °F 48.2 °F 67% 29.80 in 6.2 mi Calm Calm - N/A   Scattered Clouds
8:00 PM 58 °F 49 °F 62% 29.83 in 6 mi Calm Calm - -   Partly Cloudy
8:20 PM 59.0 °F 48.2 °F 67% 29.80 in 6.2 mi Calm Calm - N/A   Scattered Clouds
8:50 PM 59.0 °F 48.2 °F 67% 29.83 in 6.2 mi SW 5.8 mph - N/A   Scattered Clouds
9:20 PM 59.0 °F 48.2 °F 67% 29.83 in 6.2 mi SW 4.6 mph - N/A   Scattered Clouds
9:50 PM 59.0 °F 48.2 °F 67% 29.83 in 6.2 mi WSW 4.6 mph - N/A   Scattered Clouds
10:20 PM 59.0 °F 48.2 °F 67% 29.83 in 6.2 mi WSW 4.6 mph - N/A   Scattered Clouds
10:50 PM 59.0 °F 48.2 °F 67% 29.86 in 6.2 mi WSW 5.8 mph - N/A   Partly Cloudy
11:20 PM 59.0 °F 48.2 °F 67% 29.86 in 6.2 mi WSW 5.8 mph - N/A   Partly Cloudy
11:50 PM 59.0 °F 48.2 °F 67% 29.86 in 6.2 mi WSW 6.9 mph - N/A   Partly Cloudy